Other Public Products
Issued by NWS Grand Forks, ND

Home | Current Version | Previous Version | Text Only | Print | Product List | Glossary On
Versions: 1 2 3 4 5 6 7 8 9 10 11 12 13 14 15 16 17 18 19 20 21 22 23 24 25 26 27 28 29 30 31 32 33 34 35 36 37 38 39 40 41 42 43 44 45 46 47 48 49 50
000
FPUS83 KFGF 052231
OPUFGF
PRAIRIE TO PINES WEATHER ROUNDUP
NATIONAL WEATHER SERVICE EASTERN NORTH DAKOTA/GRAND FORKS ND
500 PM CDT THU MAY 05 2016

 **SATELLITE DATA USED TO AUGMENT SKY COVER AT AUTOMATED STATIONS**
 *****  WEATHER ACROSS EASTERN NORTH DAKOTA  *****

CITY           SKY/WX    TMP DP  RH WIND       PRES   REMARKS
GRAND FORKS    MOSUNNY   92  39  15 SW20      29.73F
GRAND FORKS AF SUNNY     91  37  15 W14G31    29.74F
GRAND CITY NWS NOT AVBL
BUXTON           N/A     92  36  14 W16G29      N/A
DEVILS LAKE    SUNNY     87  42  20 SW9       29.77F
FARGO          SUNNY     90  34  13 SW16      29.78F
WAHPETON ARPT  CLEAR     86  30  13 SW13G21   29.81F
$$

 *****  WEATHER ACROSS CENTRAL AND WESTERN NORTH DAKOTA  *****

CITY           SKY/WX    TMP DP  RH WIND       PRES   REMARKS
JAMESTOWN      SUNNY     87  41  19 SW12G24   29.79F
BISMARCK       SUNNY     88  45  22 SW7       29.80F
MINOT          SUNNY     94  34  12 W7G22     29.74F
MINOT AFB      MOSUNNY   90  37  15 SW8G20    29.72F
GARRISON         N/A     88  39  17 SW12      29.78F
WILLISTON      CLOUDY    87  36  16 SW10      29.77F
DICKINSON      MOSUNNY   84  31  14 SW8       29.81F
HETTINGER      MOSUNNY   83  41  22 S5        29.86F
$$

 *****  OTHER OBSERVATIONS NORTHEAST NORTH DAKOTA  *****

CITY           SKY/WX    TMP DP  RH WIND       PRES   REMARKS
WALHALLA       FAIR      91  39  16 W13       29.69S
LANGDON        FAIR      90  36  14 W13G22    29.74F
CAVALIER       FAIR      91  37  15 W17       29.69S
GRAFTON        FAIR      90  43  19 W14G24    29.72F
CANDO          FAIR      90  37  15 W14G21    29.76F
FORT TOTTEN      N/A     88  36  16 SW9       29.95S
ROLLA            N/A     88  36  15 W20       29.75F
RUGBY          FAIR      90  37  15 SW16G24   29.74F
 ***** THE ABOVE OBSERVATIONS ARE NON NWS ARE NOT QUALITY
        CONTROLLED AND MAY MIS-REPORT RAIN FOR SNOW...
$$

 *****  OTHER OBSERVATIONS SOUTHEAST NORTH DAKOTA *****

CITY           SKY/WX    TMP DP  RH WIND       PRES   REMARKS
COOPERSTOWN    NOT AVBL
VALLEY CITY    FAIR      88  39  18 W17G24    29.81F
OAKES            N/A    N/A N/A N/A MISG        N/A
GWINNER        FAIR      90  37  15 SW13G23   29.82F
SHEYENNE NWR     N/A     90  36  15 SW13      29.95S
BUFFALO          N/A     89  34  14 W17         N/A
WYNDMERE         N/A     90  34  13 SW16        N/A
 ***** THE ABOVE OBSERVATIONS ARE NON NWS ARE NOT QUALITY
       CONTROLLED AND MAY MIS-REPORT RAIN FOR SNOW...
$$

  *****  WEATHER ACROSS NORTHERN MINNESOTA  *****

CITY           SKY/WX    TMP DP  RH WIND       PRES   REMARKS
FLAG ISLAND    SUNNY     81  34  18 NW15      29.67S
WARROAD        SUNNY     91  46  21 W15G23    29.68F
ROSEAU         SUNNY     91  25   9 W14G20    29.69S
HALLOCK        SUNNY     93  25   8 SW20      29.67F
THF RVR FALLS  SUNNY     90  36  14 W21G26    29.75F
HALSTAD        NOT AVBL
FOSSTON        SUNNY     90  32  12 W18G28    29.78S
BAUDETTE       CLOUDY    90  40  17 W18G26    29.69F
WASKISH        SUNNY     81  46  30 SW12      29.74S
CROOKSTON      SUNNY     90  36  14 W15       29.74F
$$
  *****  WEATHER ACROSS CENTRAL AND WEST MINNESOTA  *****

CITY           SKY/WX    TMP DP  RH WIND       PRES   REMARKS
BEMIDJI        SUNNY     87  41  20 SW13G21   29.78F
PARK RAPIDS    SUNNY     86  41  20 W13       29.82F
WADENA         SUNNY     84  43  23 W13G22    29.84F
DETROIT LAKES  SUNNY     86  36  16 W12G21    29.83F
MOORHEAD       SUNNY     91  30  11 W15G22    29.79F
FERGUS FALLS   SUNNY     88  43  20 W17       29.79F
ELBOW LAKE     FAIR      85  41  21 SW18      29.86S
MORRIS MN      SUNNY     84  43  23 W15G21    29.86F
STAPLES        SUNNY     82  39  21 SW14      29.85F
WHEATON        SUNNY     88  43  20 SW15      29.86F
$$
  *****  WEATHER ELSEWHERE ACROSS MINNESOTA  *****

CITY           SKY/WX    TMP DP  RH WIND       PRES   REMARKS
DULUTH         SUNNY     78  38  23 W22G28    29.83F
INTRNTL FALLS  CLOUDY    86  45  23 SW9G22    29.71F
ELY            SUNNY     81  36  19 W10G16    29.77F
CLOQUET        SUNNY     79  32  18 SW14G22   29.83F
BRAINERD       SUNNY     81  39  22 SW14G23   29.86F
HIBBING        SUNNY     80  39  23 W9G21     29.80
ALEXANDRIA     SUNNY     84  42  22 SW15      29.89F
SAINT CLOUD    SUNNY     80  37  21 SW16      29.90
MINNEAPOLIS    MOSUNNY   77  35  21 W13       29.93F
$$

  *****  WEATHER ACROSS SOUTH DAKOTA  *****

CITY           SKY/WX    TMP DP  RH WIND       PRES   REMARKS
SIOUX FALLS    MOSUNNY   76  50  40 S10       29.96F
BROOKINGS      SUNNY     81  44  27 S14       29.93F
WATERTOWN      SUNNY     83  42  23 S15       29.91F
HURON          SUNNY     83  40  21 S16G24    29.88F
SISSETON         N/A     86  38  18 SW18      29.84F
ABERDEEN       SUNNY     89  37  16 SW15G26   29.85F
MITCHELL       SUNNY     83  42  23 S12G18    29.91F
PIERRE         SUNNY     86  49  27 S20       29.83F
MOBRIDGE         N/A     88  32  13 S17       29.80F
RAPID CITY     PTSUNNY   82  46  28 SE10      29.88F
$$

  *****  SOME WEATHER IN NEARBY STATES *****

CITY           SKY/WX    TMP DP  RH WIND       PRES   REMARKS
GLASGOW MT     PTSUNNY   85  39  19 VRB5      29.78F
GREAT FALLS MT CLOUDY    78  40  25 NW9       29.86F
CHEYENNE WY    CLOUDY    73  30  20 VRB5      30.08F
SCOTTSBLUFF NE PTSUNNY   83  39  21 W6        29.96F
OMAHA NE       PTSUNNY   79  38  22 CALM      30.01F
DES MOINES IA  MOSUNNY   72  32  23 W5        30.03F
DAVENPORT IA   SUNNY     67  34  29 VRB7      30.01F
CHICAGO IL     MOSUNNY   59  40  49 E8        29.97F
EAU CLAIRE WI  MOSUNNY   69  35  28 SW10G17   29.95F
LA CROSSE WI   SUNNY     71  37  28 MISG      29.97F
$$

  *****  SOME NATIONAL WEATHER *****

CITY           SKY/WX    TMP DP  RH WIND       PRES   REMARKS
LA GUARDIA NY  CLOUDY    56  46  69 NE14      29.63F
RALEIGH NC     CLOUDY    54  48  82 CALM      29.62R
ATLANTA GA     LGT RAIN  59  44  57 N20G30    29.77R
NEW ORLEANS LA SUNNY     79  49  34 NW13G18   29.87F
OKLAHOMA CITY  MOSUNNY   81  42  25 N8        30.03F
ALBUQUERQUE NM MOSUNNY   83  24  11 SW14      30.05F
SALT LAKE CITY CLOUDY    83  29  14 S20G28    29.82F
LOS ANGELES CA PTSUNNY   68  47  46 W8        29.91F
BOISE ID       PTSUNNY   77  45  32 N10       29.75F
SEATTLE WA     PTSUNNY   67  47  48 N15       30.02
$$

*** WEATHER ACROSS MANITOBA...SASKATCHEWAN AND ONTARIO ***
                ***ONTARIO***

CITY           SKY/WX    TMP DP  RH WIND       PRES   REMARKS
GERALDTON      MOSUNNY   64  30  27 S15G24    29.77F
THUNDER BAY    PTSUNNY   57  39  51 NE15      29.79S
SIOUX LOOKOUT  PTSUNNY   81  43  26 SW7       29.69F
TORONTO        PTSUNNY   59  46  63 W5        29.79F
BIG TROUT LK   SUNNY     50  30  46 NE13G20   29.80R
PICKLE LAKE    PTSUNNY   73  41  31 W6        29.69S
DRYDEN         SUNNY     81  43  26 SW13G21   29.68F
KENORA         PTSUNNY   86  46  25 W7        29.68F
$$
                *** MANITOBA***

CITY           SKY/WX    TMP DP  RH WIND       PRES   REMARKS
BRANDON        PTSUNNY   91  34  13 W17       29.68F
DAUPHIN        SUNNY     93  36  13 W16G24    29.60F
ISLAND LAKE    CLOUDY    64  39  39 NE14G21   29.67
PILOT MOUND      N/A     90  30  12 W12G21      N/A
THE PAS        CLOUDY    70  45  40 NW8       29.63S
THOMPSON       CLOUDY    55  25  30 E12G18    29.75S
WINNIPEG       MOSUNNY   95  37  13 SW17G25   29.64F HX  90
LYNN LAKE      PTSUNNY   52  34  50 VRB2      29.78R
CHURCHILL      CLOUDY    25  19  80 NE8       30.02R WCI  16
GILLAM         PTSUNNY   34  14  44 NE9       29.89R
$$
                ***SASKATCHEWAN***

CITY           SKY/WX    TMP DP  RH WIND       PRES   REMARKS
ESTEVAN        CLOUDY    88  41  19 SW15G23   29.71F
KINDERSLEY     PTSUNNY   72  37  28 N22G30    29.85R SMOKE
LLOYDMINSTER   LGT RAIN  54  37  54 NW18G29   29.97R
PRINCE ALBERT  CLOUDY    70  41  35 N25G33    29.74R SMOKE
REGINA         PTSUNNY   90  39  17 NW20      29.70S
YORKTON        SUNNY     88  36  15 W10       29.65F   C1F1C2F2C3F3C4F4C5F5C6F6C7F7C8F8C9F9CaFaCbFbCcFcCdFdCe!



USA.gov is the U.S. government's official web portal to all federal, state and local government web resources and services.